• In Deutschland
  • Länderverzeichnis
  • Für 7 Tage
  • Wassertemperatur
  • Satellitenkarten
  • Wetterkarte
  • Widgets
  • user-avatar
    Anmelden

    Stündliche Wetter Darwin

    Heute, 26 Mai, Samstag

    Zeit Temperatur Niederschläge Wind Luftdruck Luftfeuchtigkeit
    00:00 +27°C° 0 mm 2 m/S 758 mmHg 62%
    01:00 +26°C° 0 mm 2 m/S 758 mmHg 62%
    02:00 +26°C° 0 mm 3 m/S 758 mmHg 62%
    03:00 +25°C° 0 mm 3 m/S 758 mmHg 62%
    04:00 +25°C° 0 mm 3 m/S 758 mmHg 65%
    05:00 +25°C° 0 mm 3 m/S 758 mmHg 68%
    06:00 +25°C° 0 mm 4 m/S 759 mmHg 71%
    07:00 +26°C° 0 mm 4 m/S 759 mmHg 67%
    08:00 +28°C° 0 mm 4 m/S 759 mmHg 63%
    09:00 +30°C° 0 mm 4 m/S 759 mmHg 57%
    10:00 +33°C° 0 mm 4 m/S 759 mmHg 50%
    11:00 +34°C° 0 mm 4 m/S 758 mmHg 42%
    12:00 +36°C° 0 mm 4 m/S 758 mmHg 35%
    13:00 +37°C° 0 mm 4 m/S 758 mmHg 34%
    14:00 +37°C° 0 mm 3 m/S 757 mmHg 32%
    15:00 +37°C° 0 mm 3 m/S 757 mmHg 35%
    16:00 +35°C° 0 mm 3 m/S 757 mmHg 41%
    17:00 +33°C° 0 mm 3 m/S 757 mmHg 46%
    18:00 +31°C° 0 mm 2 m/S 757 mmHg 51%
    19:00 +30°C° 0 mm 2 m/S 757 mmHg 56%
    20:00 +28°C° 0 mm 2 m/S 758 mmHg 61%
    21:00 +27°C° 0 mm 1 m/S 758 mmHg 65%
    22:00 +27°C° 0 mm 1 m/S 758 mmHg 69%
    23:00 +27°C° 0 mm 1 m/S 758 mmHg 72%

    Morgen, 27 Mai, Sonntag

    Zeit Temperatur Niederschläge Wind Luftdruck Luftfeuchtigkeit
    00:00 +26°C° 0 mm 1 m/S 759 mmHg 75%
    01:00 +26°C° 0 mm 2 m/S 759 mmHg 75%
    02:00 +26°C° 0 mm 2 m/S 758 mmHg 76%
    03:00 +25°C° 0 mm 2 m/S 758 mmHg 76%
    04:00 +25°C° 0,1 mm 3 m/S 759 mmHg 75%
    05:00 +25°C° 0,1 mm 3 m/S 759 mmHg 74%
    06:00 +25°C° 0,1 mm 3 m/S 759 mmHg 73%
    07:00 +26°C° 0 mm 3 m/S 759 mmHg 68%
    08:00 +28°C° 0 mm 4 m/S 759 mmHg 62%
    09:00 +30°C° 0 mm 4 m/S 759 mmHg 56%
    10:00 +33°C° 0 mm 4 m/S 759 mmHg 49%
    11:00 +34°C° 0 mm 4 m/S 759 mmHg 41%
    12:00 +36°C° 0 mm 4 m/S 758 mmHg 34%
    13:00 +37°C° 0 mm 4 m/S 758 mmHg 33%
    14:00 +37°C° 0 mm 4 m/S 757 mmHg 31%
    15:00 +37°C° 0 mm 4 m/S 756 mmHg 30%
    16:00 +35°C° 0 mm 4 m/S 757 mmHg 36%
    17:00 +33°C° 0 mm 4 m/S 757 mmHg 43%
    18:00 +30°C° 0 mm 3 m/S 757 mmHg 50%
    19:00 +29°C° 0 mm 3 m/S 758 mmHg 57%
    20:00 +28°C° 0 mm 2 m/S 758 mmHg 63%
    21:00 +27°C° 0 mm 2 m/S 759 mmHg 70%
    22:00 +27°C° 0 mm 2 m/S 759 mmHg 73%
    23:00 +26°C° 0 mm 2 m/S 759 mmHg 75%

    übermorgen, 28 Mai, Montag

    Zeit Temperatur Niederschläge Wind Luftdruck Luftfeuchtigkeit
    00:00 +26°C° 0 mm 2 m/S 759 mmHg 78%
    01:00 +26°C° 0,1 mm 2 m/S 759 mmHg 79%
    02:00 +26°C° 0,1 mm 3 m/S 758 mmHg 79%
    03:00 +26°C° 0,1 mm 3 m/S 758 mmHg 80%
    04:00 +25°C° 0,1 mm 3 m/S 758 mmHg 80%
    05:00 +25°C° 0,1 mm 4 m/S 758 mmHg 80%
    06:00 +25°C° 0,1 mm 4 m/S 758 mmHg 80%
    07:00 +26°C° 0 mm 4 m/S 759 mmHg 72%
    08:00 +28°C° 0 mm 4 m/S 759 mmHg 64%
    09:00 +29°C° 0 mm 5 m/S 759 mmHg 56%
    10:00 +32°C° 0 mm 4 m/S 759 mmHg 48%
    11:00 +34°C° 0 mm 4 m/S 759 mmHg 40%
    12:00 +36°C° 0 mm 4 m/S 759 mmHg 31%
    13:00 +37°C° 0 mm 4 m/S 758 mmHg 30%
    14:00 +37°C° 0 mm 4 m/S 757 mmHg 29%
    15:00 +37°C° 0 mm 3 m/S 756 mmHg 28%
    16:00 +36°C° 0 mm 3 m/S 756 mmHg 32%
    17:00 +34°C° 0 mm 3 m/S 757 mmHg 37%
    18:00 +31°C° 0 mm 2 m/S 757 mmHg 42%
    19:00 +30°C° 0 mm 2 m/S 757 mmHg 46%
    20:00 +28°C° 0 mm 2 m/S 758 mmHg 50%
    21:00 +27°C° 0 mm 2 m/S 759 mmHg 54%
    22:00 +27°C° 0 mm 2 m/S 759 mmHg 58%
    23:00 +26°C° 0 mm 2 m/S 759 mmHg 61%

    29 Mai, Dienstag

    Zeit Temperatur Niederschläge Wind Luftdruck Luftfeuchtigkeit
    00:00 +26°C° 0 mm 1 m/S 759 mmHg 64%
    01:00 +26°C° 0,1 mm 1 m/S 759 mmHg 63%
    02:00 +25°C° 0,1 mm 1 m/S 758 mmHg 63%
    03:00 +25°C° 0,1 mm 1 m/S 758 mmHg 62%
    04:00 +25°C° 0 mm 2 m/S 758 mmHg 63%
    05:00 +24°C° 0 mm 2 m/S 758 mmHg 64%
    06:00 +24°C° 0 mm 3 m/S 759 mmHg 65%
    07:00 +26°C° 0 mm 4 m/S 759 mmHg 60%
    08:00 +27°C° 0 mm 4 m/S 759 mmHg 55%
    09:00 +29°C° 0 mm 5 m/S 760 mmHg 50%
    10:00 +32°C° 0 mm 5 m/S 759 mmHg 44%
    11:00 +34°C° 0 mm 5 m/S 759 mmHg 37%
    12:00 +36°C° 0 mm 5 m/S 758 mmHg 30%
    13:00 +36°C° 0 mm 5 m/S 758 mmHg 30%
    14:00 +37°C° 0 mm 4 m/S 757 mmHg 29%
    15:00 +37°C° 0 mm 4 m/S 756 mmHg 29%
    16:00 +35°C° 0 mm 3 m/S 756 mmHg 33%
    17:00 +34°C° 0 mm 2 m/S 757 mmHg 36%
    18:00 +31°C° 0 mm 2 m/S 757 mmHg 40%
    19:00 +30°C° 0 mm 2 m/S 758 mmHg 42%
    20:00 +29°C° 0 mm 2 m/S 758 mmHg 44%
    21:00 +28°C° 0 mm 2 m/S 759 mmHg 46%
    22:00 +28°C° 0 mm 2 m/S 759 mmHg 48%
    23:00 +28°C° 0 mm 2 m/S 759 mmHg 49%

    30 Mai, Mittwoch

    Zeit Temperatur Niederschläge Wind Luftdruck Luftfeuchtigkeit
    00:00 +27°C° 0 mm 2 m/S 759 mmHg 51%
    01:00 +27°C° 0 mm 3 m/S 759 mmHg 53%
    02:00 +26°C° 0 mm 3 m/S 758 mmHg 55%
    03:00 +25°C° 0 mm 3 m/S 758 mmHg 57%
    04:00 +25°C° 0 mm 4 m/S 759 mmHg 58%
    05:00 +25°C° 0 mm 5 m/S 759 mmHg 59%
    06:00 +23°C° 0 mm 6 m/S 759 mmHg 60%
    07:00 +26°C° 0 mm 7 m/S 760 mmHg 55%
    08:00 +28°C° 0 mm 7 m/S 760 mmHg 51%
    09:00 +29°C° 0 mm 8 m/S 760 mmHg 47%
    10:00 +32°C° 0 mm 8 m/S 760 mmHg 43%
    11:00 +33°C° 0 mm 7 m/S 759 mmHg 38%
    12:00 +35°C° 0 mm 6 m/S 759 mmHg 33%
    13:00 +35°C° 0 mm 6 m/S 758 mmHg 32%
    14:00 +36°C° 0 mm 5 m/S 757 mmHg 31%
    15:00 +36°C° 0 mm 4 m/S 757 mmHg 30%
    16:00 +35°C° 0 mm 4 m/S 757 mmHg 34%
    17:00 +33°C° 0 mm 3 m/S 757 mmHg 37%
    18:00 +31°C° 0 mm 3 m/S 758 mmHg 41%
    19:00 +30°C° 0 mm 3 m/S 758 mmHg 42%
    20:00 +29°C° 0 mm 3 m/S 759 mmHg 44%
    21:00 +28°C° 0 mm 3 m/S 759 mmHg 46%
    22:00 +28°C° 0 mm 4 m/S 760 mmHg 49%
    23:00 +28°C° 0 mm 5 m/S 760 mmHg 52%

    31 Mai, Donnerstag

    Zeit Temperatur Niederschläge Wind Luftdruck Luftfeuchtigkeit
    00:00 +28°C° 0 mm 6 m/S 760 mmHg 54%
    01:00 +27°C° 0 mm 6 m/S 759 mmHg 57%
    02:00 +27°C° 0 mm 6 m/S 759 mmHg 60%
    03:00 +26°C° 0 mm 7 m/S 759 mmHg 62%
    04:00 +26°C° 0 mm 7 m/S 759 mmHg 63%
    05:00 +24°C° 0 mm 7 m/S 759 mmHg 63%
    06:00 +24°C° 0 mm 7 m/S 760 mmHg 64%
    07:00 +26°C° 0 mm 7 m/S 760 mmHg 59%
    08:00 +28°C° 0 mm 8 m/S 760 mmHg 54%
    09:00 +29°C° 0 mm 8 m/S 761 mmHg 49%
    10:00 +32°C° 0 mm 8 m/S 760 mmHg 45%
    11:00 +33°C° 0 mm 7 m/S 760 mmHg 41%
    12:00 +35°C° 0 mm 7 m/S 759 mmHg 37%
    13:00 +35°C° 0 mm 6 m/S 758 mmHg 36%
    14:00 +36°C° 0 mm 5 m/S 758 mmHg 34%
    15:00 +36°C° 0 mm 4 m/S 757 mmHg 33%
    16:00 +35°C° 0 mm 4 m/S 757 mmHg 37%
    17:00 +34°C° 0 mm 3 m/S 758 mmHg 40%
    18:00 +31°C° 0 mm 2 m/S 758 mmHg 43%
    19:00 +31°C° 0 mm 3 m/S 758 mmHg 45%
    20:00 +30°C° 0 mm 3 m/S 759 mmHg 46%
    21:00 +30°C° 0 mm 3 m/S 760 mmHg 48%
    22:00 +29°C° 0 mm 5 m/S 759 mmHg 54%
    23:00 +28°C° 0 mm 6 m/S 759 mmHg 60%
    Mehr zeigen